Location: Red Rock Canyon
(36.1333°N, 115.4333°W)
Time: 23:58:41
(UTC-08:00)

ISS - Visible Passes

Search period start: 17 January 2017 00:00
Search period end: 27 January 2017 00:00
Orbit: 400 x 410 km, 51.6° (Epoch: 18 January)

Date Brightness Start Highest point End Pass type
(mag) Time Alt. Az. Time Alt. Az. Time Alt. Az.
17 Jan -0.4 04:38:41 13° NE 04:38:41 13° NE 04:39:37 10° ENE visible
17 Jan -3.4 06:11:22 10° NW 06:14:36 78° SW 06:17:50 10° SE visible
18 Jan -2.7 05:21:28 36° NNW 05:22:24 49° NE 05:25:33 10° ESE visible
19 Jan -0.5 04:31:39 18° ENE 04:31:39 18° ENE 04:32:54 10° E visible
19 Jan -2.0 06:04:20 14° W 06:06:31 26° SW 06:09:18 10° S visible
20 Jan -3.2 05:14:36 56° SSW 05:14:36 56° SSW 05:17:36 10° SE visible
21 Jan -0.2 04:24:56 14° ESE 04:24:56 14° ESE 04:25:25 10° ESE visible
22 Jan -0.9 05:08:02 13° S 05:08:02 13° S 05:08:41 10° S visible
25 Jan -0.9 19:04:12 10° SSW 19:05:10 18° SSW 19:05:10 18° SSW visible
26 Jan -2.1 18:12:27 10° S 18:15:12 25° SE 18:15:34 25° ESE visible
